Probability
23 42 58 61 61 55 58 61 58 58 55 52 45 48 42 42 35 39 32 26 26 26 29 29 23 19 10 10 16 10 13 10 10 10 10 6 3 3 3 6 6 3 6
26 45 58 61 58 61 61 58 58 58 52 52 48 45 42 29 32 35 32 23 23 19 29 26 19 16 13 10 10 10 6 10 6 6 13 6 3 3 3 3 10 3 6
26 42 55 58 61 61 61 58 58 58 48 48 45 42 39 29 29 29 26 29 26 23 23 19 19 10 10 10 6 6 3 3 3 3 6 0 3 3 3 3 3 3 3
23 39 48 68 65 61 61 61 58 55 48 45 45 39 32 32 26 26 26 26 26 16 16 19 13 6 10 6 3 3 6 3 3 0 0 0 0 3 3 3 3 3 3
26 39 48 58 65 65 61 58 58 55 55 39 35 35 32 29 23 23 26 23 19 23 13 16 13 6 6 6 3 6 0 0 3 0 0 3 3 3 3 3 6 6 6
32 42 48 52 55 58 58 58 52 55 48 39 32 32 35 32 29 26 26 26 19 19 16 13 10 10 3 6 3 0 0 0 0 0 0 3 0 0 0 3 3 6 3
32 42 45 52 52 52 58 58 48 45 42 42 35 32 29 29 29 26 23 29 16 19 19 13 10 10 10 6 3 0 0 0 0 0 0 0 0 0 0 0 0 0 0
32 39 42 52 48 48 48 52 45 42 39 35 32 32 32 32 29 29 23 26 19 16 13 13 10 10 10 6 3 3 0 0 0 0 0 0 0 0 3 0 3 3 0
29 32 39 45 42 45 45 45 45 42 39 35 35 29 35 29 26 23 29 26 19 10 6 10 13 10 6 6 3 3 0 0 0 0 0 0 0 0 0 0 3 3 0
32 35 35 35 39 35 42 39 32 32 35 35 32 19 19 16 23 19 26 26 19 13 10 10 6 6 10 6 6 3 0 0 0 0 0 0 0 0 0 0 3 3 3
29 29 32 29 39 35 39 19 19 16 16 16 13 6 6 13 10 13 3 10 16 16 10 10 6 6 3 3 3 0 0 0 0 0 0 0 3 0 0 0 0 0 0
26 26 29 26 32 32 26 23 23 19 16 16 16 13 16 13 6 3 0 3 6 6 3 3 6 3 0 0 0 0 0 0 0 0 0 0 0 0 0 0 0 0 0
23 19 23 19 26 26 32 19 23 23 19 16 13 16 16 19 6 6 3 3 3 0 0 0 0 3 3 3 3 3 0 0 0 0 0 0 0 0 0 0 0 0 0
10 16 16 19 19 19 19 16 23 16 10 10 10 10 13 16 16 13 6 3 3 3 3 6 6 0 0 0 0 3 3 3 0 0 0 0 0 0 0 3 3 0 0
6 10 10 16 13 13 10 10 10 13 10 10 10 10 10 13 13 10 10 6 3 0 3 3 3 3 3 0 0 0 0 3 3 0 0 0 0 0 0 0 3 3 3
6 6 6 10 10 10 6 6 10 10 10 10 10 10 10 10 13 10 10 6 6 3 0 3 3 3 0 0 0 0 0 0 0 0 0 0 0 0 0 0 3 3 3
6 6 6 6 6 6 3 6 6 10 10 10 10 10 10 10 10 10 13 6 3 0 0 0 0 0 0 0 0 0 0 0 0 0 0 0 0 0 0 0 3 3 3
3 6 6 3 3 6 6 3 6 6 6 6 6 6 3 3 3 3 6 6 3 0 0 0 0 0 0 0 0 0 0 0 0 0 0 0 0 0 0 0 0 0 0
0 0 3 3 3 6 6 3 3 6 6 6 6 6 3 3 3 3 3 3 0 0 0 0 0 0 0 0 0 0 0 0 0 0 0 0 0 0 0 0 0 0 0
0 0 0 0 3 3 3 3 3 6 6 6 6 6 3 3 3 3 3 3 0 0 0 0 0 0 0 0 0 0 0 0 0 0 0 0 0 0 0 0 0 0 0
0 0 0 0 0 0 3 3 3 6 6 6 6 6 3 3 3 3 3 3 0 0 0 0 0 0 0 0 0 0 0 0 0 0 0 0 0 0 0 0 0 0 0
0 0 0 0 0 0 0 3 3 3 6 6 6 3 3 3 3 3 3 3 0 0 0 0 0 0 0 0 0 0 0 0 0 0 0 0 0 0 0 0 0 0 0
0 0 0 0 0 0 0 0 0 6 3 6 6 3 3 3 3 3 3 0 0 0 0 0 0 0 0 0 0 0 0 0 0 0 0 0 0 0 0 0 0 0 0
0 0 0 0 0 0 0 0 0 0 0 0 0 0 3 3 3 3 3 0 0 0 0 0 0 0 0 0 0 0 0 0 0 0 0 0 0 0 0 0 0 0 0
0 0 0 0 0 0 0 0 0 0 0 0 0 0 0 0 0 0 0 0 0 0 0 0 0 0 0 0 0 0 0 0 0 0 0 0 0 0 0 0 0 0 0
0 0 0 0 0 0 0 0 0 0 0 0 0 0 0 0 0 0 0 0 0 0 0 0 0 0 0 0 0 0 0 0 0 0 0 0 0 0 0 0 0 0 0
Height
5847 5848 5849 5850 5851 5852 5853 5853 5854 5855 5856 5857 5857 5858 5859 5859 5860 5860 5861 5861 5861 5862 5862 5862 5862 5862 5862 5862 5862 5862 5863 5863 5862 5862 5862 5862 5862 5862 5861 5861 5861 5861 5860
5845 5845 5846 5847 5848 5849 5850 5851 5852 5853 5853 5854 5855 5856 5856 5857 5857 5858 5859 5859 5859 5860 5860 5860 5860 5860 5860 5860 5860 5860 5860 5861 5860 5860 5860 5860 5860 5859 5859 5859 5859 5859 5858
5841 5842 5843 5844 5845 5846 5847 5848 5849 5850 5851 5852 5852 5853 5854 5854 5855 5856 5856 5857 5857 5857 5858 5858 5858 5858 5858 5858 5858 5858 5858 5858 5858 5858 5858 5857 5857 5857 5857 5857 5857 5856 5856
5838 5839 5840 5841 5842 5843 5844 5845 5846 5847 5848 5849 5849 5850 5851 5852 5852 5853 5853 5854 5854 5855 5855 5855 5855 5855 5855 5855 5855 5855 5855 5855 5855 5855 5855 5855 5855 5854 5854 5854 5854 5854 5853
5834 5835 5836 5838 5839 5840 5841 5842 5843 5844 5845 5846 5846 5847 5848 5849 5849 5850 5850 5851 5851 5851 5852 5852 5852 5852 5852 5852 5852 5852 5852 5852 5852 5852 5852 5852 5852 5852 5852 5851 5851 5851 5850
5829 5831 5832 5834 5835 5836 5837 5838 5839 5840 5841 5842 5843 5844 5845 5846 5846 5846 5847 5847 5848 5848 5848 5848 5848 5848 5848 5848 5848 5848 5848 5848 5848 5848 5848 5848 5848 5848 5848 5848 5848 5848 5847
5825 5826 5828 5829 5831 5832 5834 5835 5835 5836 5837 5839 5839 5840 5841 5842 5842 5843 5843 5844 5844 5844 5844 5844 5844 5844 5844 5844 5844 5844 5844 5844 5845 5845 5845 5845 5845 5844 5844 5844 5844 5844 5844
5820 5821 5823 5824 5826 5828 5829 5830 5831 5832 5833 5834 5835 5836 5837 5837 5838 5839 5839 5840 5840 5840 5840 5840 5840 5840 5840 5840 5840 5840 5840 5840 5840 5841 5841 5841 5841 5841 5840 5840 5840 5840 5840
5814 5816 5817 5819 5821 5822 5824 5825 5827 5828 5829 5829 5830 5832 5832 5833 5834 5834 5835 5835 5835 5836 5836 5836 5835 5835 5835 5835 5835 5835 5836 5836 5836 5836 5836 5836 5836 5836 5836 5836 5836 5836 5836
5808 5810 5812 5814 5815 5817 5819 5820 5821 5823 5824 5824 5825 5826 5827 5828 5829 5829 5830 5830 5831 5831 5831 5831 5830 5830 5830 5830 5830 5831 5831 5831 5831 5832 5832 5832 5832 5832 5832 5832 5832 5832 5832
5802 5804 5806 5808 5809 5811 5813 5814 5816 5817 5818 5819 5820 5821 5822 5823 5824 5824 5825 5825 5826 5826 5826 5825 5825 5825 5825 5825 5825 5826 5826 5826 5827 5827 5827 5827 5827 5827 5827 5827 5827 5827 5827
5795 5798 5800 5802 5803 5805 5807 5808 5810 5811 5812 5813 5814 5815 5816 5817 5818 5819 5820 5820 5820 5820 5820 5820 5820 5820 5820 5820 5820 5820 5821 5821 5822 5822 5822 5822 5822 5822 5822 5822 5822 5822 5822
5788 5791 5793 5795 5796 5798 5800 5802 5803 5805 5806 5807 5808 5810 5811 5811 5812 5813 5814 5815 5815 5815 5815 5815 5814 5815 5815 5815 5815 5816 5816 5816 5817 5817 5817 5817 5817 5817 5817 5817 5817 5817 5817
5781 5783 5785 5787 5789 5791 5793 5795 5796 5798 5800 5801 5802 5803 5804 5805 5806 5807 5808 5808 5809 5809 5809 5809 5809 5809 5809 5809 5810 5810 5811 5811 5811 5812 5812 5812 5812 5812 5812 5812 5812 5811 5811
5773 5775 5777 5779 5782 5784 5785 5787 5789 5791 5792 5794 5795 5796 5797 5798 5799 5800 5801 5802 5802 5802 5803 5803 5803 5803 5803 5803 5804 5804 5805 5805 5806 5806 5806 5806 5806 5806 5806 5806 5806 5806 5806
5764 5766 5769 5771 5774 5776 5778 5779 5781 5783 5784 5786 5788 5789 5790 5791 5792 5793 5794 5795 5795 5796 5796 5796 5797 5797 5797 5797 5798 5798 5799 5799 5800 5800 5801 5801 5801 5801 5801 5800 5800 5800 5800
5754 5757 5760 5763 5765 5767 5769 5771 5773 5774 5776 5778 5779 5781 5783 5784 5785 5786 5787 5788 5788 5788 5789 5789 5790 5790 5790 5791 5791 5792 5793 5793 5794 5794 5795 5795 5795 5794 5794 5794 5794 5794 5794
5745 5747 5750 5753 5756 5758 5760 5762 5764 5766 5767 5769 5771 5773 5775 5776 5777 5778 5779 5780 5781 5781 5781 5782 5782 5783 5783 5784 5784 5785 5786 5787 5787 5788 5788 5788 5788 5788 5788 5788 5788 5787 5787
5734 5737 5740 5743 5746 5748 5750 5753 5754 5756 5758 5760 5762 5764 5766 5768 5769 5770 5772 5772 5773 5773 5774 5774 5775 5776 5776 5777 5777 5778 5779 5780 5780 5781 5781 5781 5781 5781 5781 5781 5781 5781 5780
5724 5727 5729 5732 5735 5738 5740 5743 5745 5747 5749 5752 5754 5756 5757 5759 5761 5762 5763 5764 5765 5766 5766 5767 5768 5768 5769 5769 5770 5771 5772 5773 5773 5774 5774 5774 5774 5774 5774 5774 5774 5773 5772
5714 5716 5719 5722 5724 5727 5730 5732 5735 5738 5740 5742 5744 5747 5749 5750 5752 5753 5755 5756 5757 5757 5758 5759 5759 5760 5761 5762 5763 5763 5764 5765 5766 5766 5766 5766 5766 5766 5766 5766 5766 5765 5765
5703 5706 5709 5712 5714 5717 5720 5722 5725 5727 5730 5733 5735 5737 5740 5742 5743 5744 5746 5747 5748 5749 5750 5750 5751 5752 5753 5754 5755 5755 5757 5758 5758 5758 5758 5758 5758 5758 5758 5759 5758 5757 5757
5693 5696 5699 5702 5704 5706 5709 5711 5714 5717 5720 5723 5725 5728 5730 5732 5734 5735 5736 5738 5739 5740 5741 5742 5743 5744 5744 5745 5746 5747 5748 5750 5750 5750 5750 5750 5750 5750 5750 5750 5750 5749 5748
5683 5686 5689 5691 5694 5696 5699 5701 5703 5706 5710 5713 5716 5718 5720 5722 5724 5726 5727 5728 5730 5730 5731 5732 5733 5734 5736 5737 5738 5739 5740 5741 5741 5742 5742 5742 5741 5742 5742 5742 5741 5741 5740
5674 5676 5679 5681 5684 5686 5689 5691 5693 5697 5700 5702 5705 5707 5709 5712 5714 5716 5717 5719 5720 5721 5722 5723 5724 5725 5727 5728 5729 5730 5731 5731 5732 5733 5734 5734 5733 5733 5733 5733 5732 5731 5731
5665 5667 5669 5671 5674 5676 5679 5681 5684 5687 5690 5692 5694 5696 5699 5701 5703 5705 5707 5708 5710 5711 5712 5713 5714 5715 5717 5718 5719 5720 5721 5722 5723 5723 5724 5725 5725 5725 5724 5723 5723 5722 5721
Wind_Speed
17 17 17 16 16 16 15 15 15 15 14 14 13 13 13 12 12 11 10 10 9 9 8 9 9 8 9 8 8 8 8 7 8 8 8 8 8 8 8 8 9 10 10
18 18 18 17 17 17 17 16 16 16 16 15 15 15 14 14 13 13 12 12 11 11 10 10 10 10 11 11 11 11 10 10 10 10 10 10 9 9 10 10 10 11 11
20 19 19 19 18 17 17 17 17 17 17 17 16 16 16 15 15 14 14 13 13 13 12 12 12 12 12 13 13 13 13 13 12 12 12 12 12 11 11 12 12 12 12
21 20 20 20 19 19 18 18 18 18 18 17 17 17 17 17 16 15 15 15 15 15 14 14 14 14 14 15 15 15 15 14 14 14 14 14 14 13 13 14 14 14 14
21 21 21 20 20 20 19 19 18 18 18 18 18 18 18 18 18 17 16 16 16 16 16 16 16 16 16 16 16 17 16 16 16 16 16 16 16 16 16 15 16 16 16
23 22 22 22 22 21 21 20 19 19 19 19 19 19 19 19 19 19 18 18 18 18 18 17 17 18 18 18 18 18 18 18 18 18 17 17 17 17 18 17 17 17 18
24 24 23 23 23 22 22 22 21 20 20 21 21 20 20 20 20 20 20 20 19 19 20 19 19 19 19 19 19 19 19 19 19 19 19 19 19 19 19 19 19 19 18
25 25 24 24 24 24 23 23 22 22 22 22 22 22 22 21 22 22 22 21 21 21 21 21 21 20 20 20 20 21 20 20 20 20 20 19 19 20 20 20 20 19 19
27 27 26 26 26 25 24 24 24 24 24 23 23 23 23 23 23 23 23 23 23 23 23 22 22 22 21 21 22 22 22 21 21 21 21 21 21 21 21 21 21 21 21
29 29 28 28 28 27 26 25 25 25 25 25 24 25 25 24 24 24 24 23 23 23 23 23 23 24 24 23 22 22 23 23 22 22 22 22 22 22 23 23 23 22 22
30 30 30 30 29 28 28 27 27 27 27 27 26 25 26 25 25 24 24 24 24 24 24 24 24 23 23 23 23 23 23 23 23 23 23 23 23 23 23 23 24 24 24
31 31 31 31 31 31 30 29 29 28 28 28 27 26 26 27 26 26 26 25 25 25 25 25 24 24 23 23 22 22 22 22 23 22 22 23 24 24 24 24 24 25 25
33 33 32 32 32 32 31 31 30 29 28 29 28 28 28 28 28 28 28 27 27 26 26 26 25 25 24 24 24 23 23 23 23 23 23 23 24 25 25 25 25 25 25
35 35 34 34 34 34 33 32 32 31 31 31 30 31 31 30 30 30 29 29 28 28 28 28 27 27 26 26 26 25 24 24 25 25 25 25 25 26 26 26 26 26 26
36 36 36 36 35 35 34 34 34 34 33 33 32 32 32 32 31 31 31 30 30 30 30 29 28 28 28 28 28 27 26 25 26 26 26 26 27 27 27 27 27 27 27
37 37 37 37 37 36 36 36 35 35 35 35 35 34 33 33 33 32 31 32 32 31 31 30 30 29 29 29 29 29 28 27 27 27 27 28 28 28 29 29 28 28 29
38 38 38 38 38 38 37 37 36 36 36 36 36 35 34 34 34 34 33 33 33 32 32 31 31 30 30 30 30 30 30 29 29 28 28 29 29 29 29 29 29 30 30
39 39 39 39 39 39 38 38 38 36 36 36 37 36 36 35 35 35 34 34 34 33 33 33 32 31 31 31 31 31 31 31 30 30 30 30 30 30 30 30 30 30 31
40 40 40 40 40 40 39 39 39 38 38 37 37 36 36 36 36 36 36 35 35 34 34 34 33 32 32 32 32 32 31 31 31 31 32 32 32 31 31 31 31 31 32
40 40 40 40 41 41 40 40 40 40 40 39 38 37 37 37 37 36 36 36 35 35 35 34 34 33 33 33 33 33 33 32 31 32 33 32 32 32 32 32 32 32 33
40 40 41 41 42 41 41 41 41 41 41 40 39 38 38 38 38 37 36 36 36 36 35 35 35 35 35 34 34 34 34 33 33 32 33 33 33 33 33 33 33 32 33
40 40 41 42 42 42 42 42 42 42 42 41 40 40 39 38 38 37 37 37 37 37 36 35 35 35 35 35 35 35 35 35 34 33 33 33 33 34 34 34 34 33 34
39 39 39 41 42 42 43 43 43 43 43 43 41 40 40 40 40 39 38 38 38 38 38 38 37 36 36 36 36 36 36 36 36 35 35 35 35 35 35 35 36 36 35
37 38 38 39 41 42 42 42 42 42 43 42 41 41 42 41 41 40 39 38 39 39 39 39 40 39 37 37 37 37 37 37 37 36 36 36 37 36 36 37 37 37 37
36 37 38 38 40 40 41 41 42 42 43 43 42 42 42 42 42 41 40 39 38 39 40 39 40 40 40 39 39 39 39 38 38 38 37 37 38 38 38 39 39 39 38
36 36 37 37 39 39 40 41 41 42 42 43 43 42 42 42 41 40 40 40 39 39 40 39 40 40 40 41 41 40 40 40 39 39 38 38 38 38 38 38 39 40 40
Wind_Direction
235 235 234 235 234 234 235 234 234 235 237 236 233 231 230 230 231 233 234 237 241 245 248 249 252 256 256 255 255 257 260 263 265 266 268 269 272 274 276 279 283 285 288
238 238 237 235 235 236 236 236 236 236 237 238 235 235 236 236 237 238 240 242 245 248 250 253 257 259 260 259 258 260 263 264 264 265 266 267 268 271 272 275 282 284 285
239 239 239 236 235 235 235 236 236 237 239 238 237 238 239 241 241 242 246 248 249 251 253 257 260 262 262 260 260 261 263 264 263 265 266 266 267 269 271 273 278 280 283
239 240 240 239 237 236 235 235 235 238 239 239 239 240 242 243 245 246 248 250 252 254 256 260 262 263 263 262 260 262 262 263 264 264 265 263 264 267 270 272 274 277 280
240 240 240 240 238 238 236 236 236 237 239 240 241 242 244 245 247 249 251 253 255 256 258 261 262 264 264 263 262 262 262 263 263 264 264 262 262 266 269 271 273 274 276
240 241 241 241 240 240 240 239 238 238 239 241 242 244 245 246 248 250 252 254 256 258 260 261 263 264 264 264 263 263 263 263 262 263 263 262 262 265 268 269 271 274 275
241 240 240 241 241 241 241 241 241 241 241 242 244 246 247 248 249 251 254 256 258 259 260 262 264 265 265 264 263 263 263 264 263 264 264 263 263 264 266 267 269 272 274
241 240 240 241 241 241 242 242 242 243 244 244 245 247 248 250 252 252 254 257 259 261 261 263 265 267 266 264 263 263 263 264 264 264 265 264 264 265 266 266 269 271 273
242 242 241 241 241 241 243 243 243 243 245 245 246 248 250 251 253 254 254 256 258 260 262 264 265 266 265 263 263 263 262 263 264 265 265 265 265 266 267 267 269 271 273
242 242 242 242 242 242 243 244 244 244 246 248 248 250 251 251 253 254 254 256 257 259 261 263 265 265 264 262 262 262 262 262 263 264 264 264 265 266 267 268 269 271 273
242 241 241 242 243 243 244 245 246 246 246 248 249 251 251 251 253 254 255 257 258 260 262 263 264 264 263 262 261 262 261 261 261 263 263 263 264 265 267 268 270 272 273
242 242 241 242 243 244 245 245 246 247 247 248 249 251 253 253 253 255 256 258 259 260 262 262 263 263 262 261 261 261 260 260 262 263 263 264 265 265 267 268 270 272 273
242 242 241 242 243 244 245 246 246 246 247 248 249 251 254 254 255 256 257 259 260 261 262 262 261 262 263 261 260 260 260 259 261 262 264 265 267 267 268 269 271 273 273
243 242 242 242 243 244 244 245 246 247 248 249 251 252 254 255 256 256 257 258 259 261 262 261 262 262 262 260 259 259 260 260 261 262 263 265 267 268 268 270 273 273 273
242 242 242 242 243 244 245 246 247 248 248 249 251 252 253 254 255 256 256 257 259 261 260 261 262 261 261 260 259 259 260 260 262 263 264 265 267 268 269 270 272 273 273
243 242 242 243 244 245 246 247 247 249 250 250 250 251 253 254 255 256 257 257 258 260 259 259 260 260 260 259 259 259 260 261 262 263 264 265 266 268 269 270 271 272 273
242 242 243 244 245 246 246 247 247 248 250 250 250 251 252 254 255 257 257 257 258 259 258 259 259 259 259 259 259 260 260 262 263 264 265 267 267 268 269 269 270 272 273
243 243 243 244 245 245 245 246 247 247 249 250 251 251 252 253 255 257 257 257 257 258 258 258 258 259 259 259 259 260 261 263 264 265 266 267 268 270 271 270 271 272 273
244 244 244 243 244 245 246 247 247 247 248 249 250 251 252 252 254 256 256 256 256 257 258 258 258 259 259 260 259 259 261 263 264 265 267 268 269 270 271 271 272 273 274
244 244 243 243 244 245 246 247 248 247 248 249 250 250 252 253 255 256 257 257 257 257 258 258 258 259 259 259 259 259 260 263 264 266 267 268 269 270 271 271 272 273 274
244 244 244 244 244 245 246 247 249 249 249 250 251 251 252 254 255 258 259 259 258 257 258 257 259 259 259 259 259 259 260 262 265 266 267 268 269 270 271 271 272 274 275
245 245 246 245 245 246 247 248 249 249 249 251 252 254 254 254 255 257 259 259 258 257 257 257 258 258 258 258 259 260 261 261 264 266 267 268 269 270 270 271 271 275 276
246 245 246 246 247 247 248 249 249 248 249 250 252 253 254 254 254 256 258 259 259 258 257 256 257 258 258 258 258 260 261 262 262 266 268 269 270 270 271 271 273 275 276
248 246 247 249 248 248 249 250 250 249 249 251 253 253 253 254 254 254 256 257 258 258 256 256 257 258 259 258 259 260 261 263 264 266 267 269 269 270 272 273 275 275 276
249 248 248 249 249 248 249 250 251 250 250 252 254 255 254 253 254 255 255 257 257 257 257 256 257 258 258 259 259 260 261 262 264 266 266 267 268 270 273 274 275 275 276
248 249 248 248 248 248 249 250 251 251 251 252 254 256 254 254 255 256 256 257 257 257 257 256 257 257 258 259 260 260 261 263 264 265 266 266 268 270 272 274 275 276 277